Location: Pelzer
(34.6421°N, 82.4557°W)
Time: 03:51:00
(UTC+00:00)

X-37B - Visible Passes

Search period start: 16 August 2022 00:00
Search period end: 26 August 2022 00:00
Orbit: 328 x 343 km, 45.0° (Epoch: 12 August)

Date Brightness Start Highest point End Pass type
(mag) Time Alt. Az. Time Alt. Az. Time Alt. Az.
16 Aug 1.1 09:19:47 27° NW 09:21:03 51° NNE 09:23:53 10° ESE visible
17 Aug 0.5 09:40:41 34° W 09:41:29 46° SW 09:44:16 10° SE visible
18 Aug 2.3 10:02:00 14° SW 10:02:00 14° SW 10:03:25 10° S visible
20 Aug 1.2 01:05:31 10° SSW 01:08:00 28° SE 01:09:03 22° ESE visible
21 Aug 0.3 01:25:32 10° WSW 01:28:21 79° NNW 01:29:43 27° NE visible
22 Aug 2.3 01:46:23 10° W 01:48:53 28° NNW 01:50:00 21° NNE visible
23 Aug 3.1 02:07:47 10° NW 02:09:36 16° NNW 02:09:58 15° N visible
24 Aug 2.3 00:51:49 10° W 00:54:19 28° NNW 00:56:50 10° NE visible
24 Aug 3.9 02:29:28 10° NNW 02:29:43 11° NNW 02:29:43 11° NNW visible
25 Aug 3.2 01:13:12 10° NW 01:15:02 16° NNW 01:16:51 10° NNE visible
